{"data":{"norad_id":59290,"intl_designator":"2024-053C","name":"AEROCUBE 16A","alt_names":[],"object_type":"PAYLOAD","status":"ACTIVE","operator":null,"country":"US","launch_date":"2024-03-21","launch_site_code":"WLPIS","launch_vehicle":null,"mission":null,"orbit_class":"UNKNOWN","rcs_meters":null,"size_class":null,"mass_kg":null,"dimensions":null,"purposes":[],"wikipedia_slug":null,"has_3d_model":false,"image_url":null,"decayed_at":null,"tle_current":{"epoch":"2026-05-24T22:14:24.573120Z","epoch_age_seconds":77820,"freshness":"FRESH","line1":"1 59290U 24053C   26144.92667330  .00014528  00000+0  33179-3 0  9997","line2":"2 59290  49.9891  82.9469 0002039 238.8287 121.2476 15.43046339117513","mean_motion":15.43046339,"eccentricity":0.0002039,"inclination_deg":49.9891,"raan_deg":82.9469,"arg_perigee_deg":238.8287,"mean_anomaly_deg":121.2476,"bstar":0.00033179,"rev_number":11751,"period_min":93.321889537888,"perigee_km":435.73494231756,"apogee_km":438.5142059875,"semimajor_km":6815.2615741525,"source":"CELESTRAK","updated_at":"2026-05-25T13:38:01.314278Z"}}}